Flag for Thailand Weather past 2 weeks in Udon Thani, Thailand

Now
79 °F

Warm.


Feels Like: 82 °F
Forecast: 78 / 90 °F
Wind: 8 mph from Southeast

Location: Udon Thani Airport

Current Time: Aug 29, 2015 at 4:53:14 PM

Latest Report: Aug 29, 2015 at 4:00 PM


Visibility: N/A

Pressure: 29.68 "Hg

Humidity: 84%

Dew point: 73 °F

Location of Udon ThaniLocation

Historic Weather in Udon Thani — Graph

°F

Udon Thani temperature yesterday

Maximum temperature yesterday: 90 °F (at 12:00 PM)
Minimum temperature yesterday: 79 °F (at 6:00 AM)
Average temperature yesterday: 85 °F

Past Weeks' High & Low Weather Summary

 TemperatureHumidityPressure
High95 °F (Aug 17, 2:00 PM)100% (Aug 16, 6:00 AM)29.86 "Hg (Aug 16, 6:00 AM)
Low75 °F (Aug 26, 8:00 AM)53% (Aug 16, 4:00 PM)29.59 "Hg (Aug 22, 5:00 PM)
Average86 °F73%29.74 "Hg
* Reported Aug 14 2:00 PM — Aug 29 2:00 PM, Udon Thani, Weather by CustomWeather, © 2015

Note: Actual official high and low records may vary slightly from our data, if they occured in-between our weather recording intervals... More about our weather records

Advertising

Udon Thani weather history for previous 24 hours

 ConditionsComfort  
Time TempWeatherWind HumidityBarometerVisibility
2:00 PM
Sat, Aug 29
91 °FScattered clouds.6 mph59%29.68 "HgN/A
1:00 PM93 °FPartly sunny.6 mph59%29.71 "HgN/A
12:00 PM91 °FScattered clouds.5 mph63%29.74 "HgN/A
11:00 AM88 °FPassing clouds.7 mph66%29.77 "HgN/A
10:00 AM86 °FPassing clouds.5 mph70%29.77 "HgN/A
9:00 AM84 °FPassing clouds.7 mph74%29.77 "HgN/A
8:00 AM81 °FPassing clouds.3 mph89%29.77 "HgN/A
7:00 AM79 °FSunny.3 mph94%29.74 "Hg10 mi
6:00 AM79 °FSunny.3 mph94%29.71 "Hg10 mi
10:00 PM
Fri, Aug 28
82 °FPassing clouds.6 mph89%29.77 "HgN/A
9:00 PM84 °FPassing clouds.5 mph84%29.74 "HgN/A
8:00 PM82 °FPassing clouds.2 mph84%29.74 "HgN/A
7:00 PM82 °FPassing clouds.No wind79%29.68 "HgN/A
6:00 PM86 °FPassing clouds.6 mph70%29.68 "HgN/A
5:00 PM88 °FPassing clouds.9 mph66%29.65 "HgN/A
4:00 PM90 °FPassing clouds.8 mph63%29.65 "HgN/A
Weather by CustomWeather, © 2015

See weather overviewHow to use our weather pages